Location: Ahausen
(50.4985°N, 8.2722°E)
Time: 01:29:55
(UTC+00:00)

Cosmos 2142 Rocket - Pass Details

Date: 18 September 2020
Orbit: 952 x 1005 km, 82.9° (Epoch: 23 October)

Event Time Altitude Azimuth Distance (km) Brightness Sun altitude
Exits shadow 20:21:18 58° 155° (SSE) 1,142 4.5 -25.6°
Maximum altitude 20:22:29 72° 96° (E) 1,032 4.4 -25.7°
Drops below altitude 10° 20:28:43 10° 13° (NNE) 2,729 7.1 -26.5°
Sets 20:31:14 0° 12° (NNE) 3,673 7.9 -26.8°
